Time,TemperatureF,DewpointF,PressureIn,WindDirection,WindDirectionDegrees,WindSpeedMPH,WindSpeedGustMPH,Humidity,HourlyPrecipIn,Conditions,Clouds,dailyrainin,SoftwareType,DateUTC
2013-03-10 00:01:00,49.8,38.5,28.30,North,0,11.0,17.0,65,0.00,,,0.00,meteohub,2013-03-10 06:01:00,
2013-03-10 00:06:00,49.3,37.9,28.31,North,0,11.0,17.0,65,0.00,,,0.00,meteohub,2013-03-10 06:06:00,
2013-03-10 00:11:00,49.1,37.8,28.31,NW,315,11.0,17.0,65,0.00,,,0.00,meteohub,2013-03-10 06:11:00,
2013-03-10 00:16:00,49.1,37.8,28.28,NW,315,14.0,17.0,65,0.00,,,0.00,meteohub,2013-03-10 06:16:00,
2013-03-10 00:21:00,48.7,37.9,28.29,NW,315,12.0,16.0,66,0.00,,,0.00,meteohub,2013-03-10 06:21:00,
2013-03-10 00:26:00,48.4,37.9,28.29,NW,315,12.0,17.0,67,0.00,,,0.00,meteohub,2013-03-10 06:26:00,
2013-03-10 00:31:00,48.2,37.8,28.30,NW,315,15.0,17.0,67,0.00,,,0.00,meteohub,2013-03-10 06:31:00,
2013-03-10 00:36:00,47.8,37.8,28.31,NW,315,13.0,17.0,68,0.00,,,0.00,meteohub,2013-03-10 06:36:00,
2013-03-10 00:41:00,47.7,37.9,28.31,NW,315,11.0,17.0,69,0.00,,,0.00,meteohub,2013-03-10 06:41:00,
2013-03-10 00:46:00,47.5,37.8,28.30,West,270,9.0,15.0,69,0.00,,,0.00,meteohub,2013-03-10 06:46:00,
2013-03-10 00:51:00,47.5,37.8,28.30,NW,315,7.0,13.0,69,0.00,,,0.00,meteohub,2013-03-10 06:51:00,
2013-03-10 00:56:00,47.3,37.9,28.31,West,270,10.0,13.0,70,0.00,,,0.00,meteohub,2013-03-10 06:56:00,
2013-03-10 01:01:00,47.1,37.8,28.32,West,270,9.0,12.0,70,0.00,,,0.00,meteohub,2013-03-10 07:01:00,
2013-03-10 01:06:00,46.9,38.1,28.33,NW,315,10.0,12.0,71,0.00,,,0.00,meteohub,2013-03-10 07:06:00,
2013-03-10 01:11:00,46.9,37.6,28.35,NW,315,11.0,12.0,70,0.00,,,0.00,meteohub,2013-03-10 07:11:00,
2013-03-10 01:16:00,46.8,38.3,28.33,NW,315,9.0,11.0,72,0.00,,,0.00,meteohub,2013-03-10 07:16:00,
2013-03-10 01:21:00,46.8,37.9,28.31,NW,315,8.0,12.0,71,0.00,,,0.00,meteohub,2013-03-10 07:21:00,
2013-03-10 01:26:00,46.6,38.5,28.33,NW,315,12.0,12.0,73,0.00,,,0.00,meteohub,2013-03-10 07:26:00,
2013-03-10 01:31:00,46.4,37.6,28.32,NW,315,11.0,12.0,71,0.00,,,0.00,meteohub,2013-03-10 07:31:00,
2013-03-10 01:36:00,46.2,37.8,28.31,West,270,8.0,12.0,72,0.00,,,0.00,meteohub,2013-03-10 07:36:00,
2013-03-10 01:41:00,45.9,37.8,28.30,West,270,8.0,12.0,73,0.00,,,0.00,meteohub,2013-03-10 07:41:00,
2013-03-10 01:46:00,45.7,37.9,28.30,West,270,11.0,11.0,74,0.00,,,0.00,meteohub,2013-03-10 07:46:00,
2013-03-10 01:52:00,45.5,37.8,28.30,West,270,10.0,11.0,74,0.00,,,0.00,meteohub,2013-03-10 07:52:00,
2013-03-10 01:57:00,45.3,37.6,28.30,WNW,293,11.0,11.0,74,0.00,,,0.00,meteohub,2013-03-10 07:57:00,
2013-03-10 03:02:00,45.1,37.4,28.30,West,270,11.0,12.0,74,0.00,,,0.00,meteohub,2013-03-10 08:02:00,
2013-03-10 03:07:00,45.1,37.0,28.28,West,270,12.0,13.0,73,0.00,,,0.00,meteohub,2013-03-10 08:07:00,
2013-03-10 03:12:00,44.8,36.0,28.28,West,270,15.0,15.0,71,0.00,,,0.00,meteohub,2013-03-10 08:12:00,
2013-03-10 03:17:00,45.1,35.6,28.30,NW,315,14.0,15.0,69,0.00,,,0.00,meteohub,2013-03-10 08:17:00,
2013-03-10 03:22:00,45.0,34.3,28.29,West,270,16.0,16.0,66,0.00,,,0.00,meteohub,2013-03-10 08:22:00,
2013-03-10 03:27:00,44.8,34.2,28.29,West,270,12.0,17.0,66,0.00,,,0.00,meteohub,2013-03-10 08:27:00,
2013-03-10 03:32:00,44.4,34.2,28.29,West,270,11.0,17.0,67,0.00,,,0.00,meteohub,2013-03-10 08:32:00,
2013-03-10 03:37:00,44.1,34.2,28.29,West,270,13.0,17.0,68,0.00,,,0.00,meteohub,2013-03-10 08:37:00,
2013-03-10 03:42:00,44.1,34.2,28.29,NW,315,16.0,17.0,68,0.00,,,0.00,meteohub,2013-03-10 08:42:00,
2013-03-10 03:47:00,43.9,34.3,28.30,WNW,293,15.0,17.0,69,0.00,,,0.00,meteohub,2013-03-10 08:47:00,
2013-03-10 03:52:00,43.7,34.2,28.30,WSW,248,15.0,17.0,69,0.00,,,0.00,meteohub,2013-03-10 08:52:00,
2013-03-10 03:57:00,43.5,34.3,28.31,West,270,17.0,17.0,70,0.00,,,0.00,meteohub,2013-03-10 08:57:00,
2013-03-10 04:02:00,43.3,34.2,28.29,West,270,11.0,17.0,70,0.00,,,0.00,meteohub,2013-03-10 09:02:00,
2013-03-10 04:07:00,43.0,34.9,28.29,West,270,11.0,18.0,73,0.00,,,0.00,meteohub,2013-03-10 09:07:00,
2013-03-10 04:12:00,43.0,34.9,28.29,West,270,11.0,18.0,73,0.00,,,0.00,meteohub,2013-03-10 09:12:00,
2013-03-10 04:17:00,42.8,34.0,28.28,West,270,21.0,21.0,71,0.00,,,0.00,meteohub,2013-03-10 09:17:00,
2013-03-10 04:22:00,42.8,33.3,28.29,West,270,17.0,21.0,69,0.00,,,0.00,meteohub,2013-03-10 09:22:00,
2013-03-10 04:27:00,42.6,33.1,28.29,NW,315,17.0,21.0,69,0.00,,,0.00,meteohub,2013-03-10 09:27:00,
2013-03-10 04:32:00,42.6,33.1,28.29,West,270,17.0,23.0,69,0.00,,,0.00,meteohub,2013-03-10 09:32:00,
2013-03-10 04:37:00,43.0,33.4,28.30,West,270,16.0,23.0,69,0.00,,,0.00,meteohub,2013-03-10 09:37:00,
2013-03-10 04:42:00,43.2,33.3,28.29,WNW,293,17.0,23.0,68,0.00,,,0.00,meteohub,2013-03-10 09:42:00,
2013-03-10 04:47:00,43.2,33.3,28.30,West,270,15.0,19.0,68,0.00,,,0.00,meteohub,2013-03-10 09:47:00,
2013-03-10 04:52:00,43.2,33.6,28.30,WSW,248,15.0,18.0,69,0.00,,,0.00,meteohub,2013-03-10 09:52:00,
2013-03-10 04:57:00,43.0,33.4,28.30,West,270,15.0,21.0,69,0.00,,,0.00,meteohub,2013-03-10 09:57:00,
2013-03-10 05:02:00,43.3,33.1,28.30,West,270,20.0,21.0,67,0.00,,,0.00,meteohub,2013-03-10 10:02:00,
2013-03-10 05:07:00,43.2,32.9,28.30,West,270,20.0,21.0,67,0.00,,,0.00,meteohub,2013-03-10 10:07:00,
2013-03-10 05:12:00,43.2,33.6,28.30,West,270,18.0,23.0,69,0.00,,,0.00,meteohub,2013-03-10 10:12:00,
2013-03-10 05:17:00,42.6,33.1,28.31,NW,315,21.0,23.0,69,0.00,,,0.00,meteohub,2013-03-10 10:17:00,
2013-03-10 05:22:00,42.6,33.4,28.31,West,270,16.0,23.0,70,0.00,,,0.00,meteohub,2013-03-10 10:22:00,
2013-03-10 05:27:00,42.3,33.6,28.30,West,270,17.0,22.0,71,0.00,,,0.00,meteohub,2013-03-10 10:27:00,
2013-03-10 05:32:00,42.1,33.4,28.31,NW,315,17.0,21.0,71,0.00,,,0.00,meteohub,2013-03-10 10:32:00,
2013-03-10 05:37:00,42.4,33.6,28.30,West,270,21.0,25.0,71,0.00,,,0.00,meteohub,2013-03-10 10:37:00,
2013-03-10 05:42:00,42.1,33.8,28.31,SW,225,21.0,25.0,72,0.00,,,0.00,meteohub,2013-03-10 10:42:00,
2013-03-10 05:47:00,41.7,33.4,28.31,NW,315,22.0,25.0,72,0.00,,,0.00,meteohub,2013-03-10 10:47:00,
2013-03-10 05:52:00,41.7,33.6,28.32,NW,315,22.0,23.0,73,0.00,,,0.00,meteohub,2013-03-10 10:52:00,
2013-03-10 05:57:00,41.4,33.4,28.32,NW,315,25.0,25.0,73,0.00,,,0.00,meteohub,2013-03-10 10:57:00,
2013-03-10 06:02:00,41.5,33.8,28.32,NW,315,13.0,25.0,74,0.00,,,0.00,meteohub,2013-03-10 11:02:00,
2013-03-10 06:07:00,41.4,33.6,28.33,NW,315,17.0,25.0,74,0.00,,,0.00,meteohub,2013-03-10 11:07:00,
2013-03-10 06:12:00,41.2,33.3,28.34,WNW,293,21.0,25.0,73,0.00,,,0.00,meteohub,2013-03-10 11:12:00,
2013-03-10 06:17:00,41.0,33.1,28.34,NW,315,18.0,21.0,73,0.00,,,0.00,meteohub,2013-03-10 11:17:00,
2013-03-10 06:22:00,41.0,33.1,28.34,West,270,13.0,21.0,73,0.00,,,0.00,meteohub,2013-03-10 11:22:00,
2013-03-10 06:27:00,40.8,33.3,28.35,NW,315,16.0,21.0,74,0.00,,,0.00,meteohub,2013-03-10 11:27:00,
2013-03-10 06:32:00,41.0,33.4,28.35,NW,315,15.0,21.0,74,0.00,,,0.00,meteohub,2013-03-10 11:32:00,
2013-03-10 06:37:00,40.8,33.4,28.35,NW,315,11.0,19.0,75,0.00,,,0.00,meteohub,2013-03-10 11:37:00,
2013-03-10 06:42:00,40.8,33.3,28.34,NW,315,15.0,22.0,74,0.00,,,0.00,meteohub,2013-03-10 11:42:00,
2013-03-10 06:47:00,41.0,33.4,28.35,NW,315,13.0,22.0,74,0.00,,,0.00,meteohub,2013-03-10 11:47:00,
2013-03-10 06:52:00,40.8,33.3,28.35,NW,315,20.0,22.0,74,0.00,,,0.00,meteohub,2013-03-10 11:52:00,
2013-03-10 06:57:00,41.0,33.1,28.35,NW,315,21.0,21.0,73,0.00,,,0.00,meteohub,2013-03-10 11:57:00,
2013-03-10 07:02:00,41.0,33.4,28.35,NW,315,14.0,21.0,74,0.00,,,0.00,meteohub,2013-03-10 12:02:00,
2013-03-10 07:07:00,40.8,33.3,28.36,West,270,15.0,21.0,74,0.00,,,0.00,meteohub,2013-03-10 12:07:00,
2013-03-10 07:12:00,41.0,33.4,28.36,NW,315,19.0,22.0,74,0.00,,,0.00,meteohub,2013-03-10 12:12:00,
2013-03-10 07:17:00,40.5,32.9,28.36,NW,315,20.0,22.0,74,0.00,,,0.00,meteohub,2013-03-10 12:17:00,
2013-03-10 07:22:00,40.3,33.1,28.38,NW,315,21.0,26.0,75,0.00,,,0.00,meteohub,2013-03-10 12:22:00,
2013-03-10 07:27:00,40.1,32.5,28.38,NW,315,22.0,26.0,74,0.00,,,0.00,meteohub,2013-03-10 12:27:00,
2013-03-10 07:32:00,40.3,32.7,28.38,NW,315,23.0,26.0,74,0.00,,,0.00,meteohub,2013-03-10 12:32:00,
2013-03-10 07:37:00,40.3,32.4,28.38,NW,315,23.0,26.0,73,0.00,,,0.00,meteohub,2013-03-10 12:37:00,
2013-03-10 07:42:00,40.1,31.8,28.38,NW,315,20.0,26.0,72,0.00,,,0.00,meteohub,2013-03-10 12:42:00,
2013-03-10 07:47:00,40.5,31.5,28.39,NW,315,30.0,30.0,70,0.00,,,0.00,meteohub,2013-03-10 12:47:00,
2013-03-10 07:52:00,40.3,31.3,28.39,NW,315,26.0,30.0,70,0.00,,,0.00,meteohub,2013-03-10 12:52:00,
2013-03-10 07:57:00,40.1,31.1,28.40,NW,315,19.0,30.0,70,0.00,,,0.00,meteohub,2013-03-10 12:57:00,
2013-03-10 08:02:00,39.9,30.6,28.40,NW,315,26.0,30.0,69,0.00,,,0.00,meteohub,2013-03-10 13:02:00,
2013-03-10 08:07:00,40.1,30.7,28.40,NW,315,15.0,30.0,69,0.00,,,0.00,meteohub,2013-03-10 13:07:00,
2013-03-10 08:12:00,39.9,30.9,28.41,NW,315,14.0,30.0,70,0.00,,,0.00,meteohub,2013-03-10 13:12:00,
2013-03-10 08:17:00,39.9,30.9,28.41,NW,315,17.0,26.0,70,0.00,,,0.00,meteohub,2013-03-10 13:17:00,
2013-03-10 08:22:00,39.9,30.9,28.41,NW,315,18.0,22.0,70,0.00,,,0.00,meteohub,2013-03-10 13:22:00,
2013-03-10 08:27:00,40.1,31.1,28.41,North,0,19.0,33.0,70,0.00,,,0.00,meteohub,2013-03-10 13:27:00,
2013-03-10 08:32:00,39.9,30.9,28.41,NW,315,17.0,33.0,70,0.00,,,0.00,meteohub,2013-03-10 13:32:00,
2013-03-10 08:37:00,39.9,30.9,28.41,North,0,15.0,33.0,70,0.00,,,0.00,meteohub,2013-03-10 13:37:00,
2013-03-10 08:42:00,40.3,30.6,28.42,NW,315,19.0,22.0,68,0.00,,,0.00,meteohub,2013-03-10 13:42:00,
2013-03-10 08:47:00,40.1,30.7,28.42,NW,315,17.0,28.0,69,0.00,,,0.00,meteohub,2013-03-10 13:47:00,
2013-03-10 08:52:00,40.1,30.4,28.43,NW,315,17.0,28.0,68,0.00,,,0.00,meteohub,2013-03-10 13:52:00,
2013-03-10 08:57:00,40.3,29.8,28.43,NW,315,29.0,29.0,66,0.00,,,0.00,meteohub,2013-03-10 13:57:00,
2013-03-10 09:02:00,40.3,29.8,28.43,NW,315,19.0,29.0,66,0.00,,,0.00,meteohub,2013-03-10 14:02:00,
2013-03-10 09:07:00,40.5,29.7,28.43,NW,315,26.0,29.0,65,0.00,,,0.00,meteohub,2013-03-10 14:07:00,
2013-03-10 09:12:00,40.3,29.8,28.44,NW,315,26.0,29.0,66,0.00,,,0.00,meteohub,2013-03-10 14:12:00,
2013-03-10 09:17:00,40.5,29.7,28.44,NW,315,23.0,26.0,65,0.00,,,0.00,meteohub,2013-03-10 14:17:00,
2013-03-10 09:22:00,40.6,29.8,28.44,NW,315,18.0,26.0,65,0.00,,,0.00,meteohub,2013-03-10 14:22:00,
2013-03-10 09:27:00,40.6,29.8,28.45,NW,315,21.0,26.0,65,0.00,,,0.00,meteohub,2013-03-10 14:27:00,
2013-03-10 09:32:00,40.5,29.7,28.45,NW,315,21.0,23.0,65,0.00,,,0.00,meteohub,2013-03-10 14:32:00,
2013-03-10 09:37:00,40.6,30.2,28.45,NW,315,17.0,21.0,66,0.00,,,0.00,meteohub,2013-03-10 14:37:00,
2013-03-10 09:42:00,40.5,30.7,28.46,NW,315,8.0,23.0,68,0.00,,,0.00,meteohub,2013-03-10 14:42:00,
2013-03-10 09:47:00,40.6,30.6,28.46,NW,315,19.0,23.0,67,0.00,,,0.00,meteohub,2013-03-10 14:47:00,
2013-03-10 09:52:00,40.8,31.1,28.46,NW,315,12.0,19.0,68,0.00,,,0.00,meteohub,2013-03-10 14:52:00,
2013-03-10 09:57:00,40.8,31.1,28.46,West,270,15.0,21.0,68,0.00,,,0.00,meteohub,2013-03-10 14:57:00,
2013-03-10 10:02:00,40.8,30.4,28.47,NW,315,21.0,21.0,66,0.00,,,0.00,meteohub,2013-03-10 15:02:00,
2013-03-10 10:07:00,40.6,30.2,28.47,NW,315,17.0,25.0,66,0.00,,,0.00,meteohub,2013-03-10 15:07:00,
2013-03-10 10:12:00,40.8,30.0,28.48,WNW,293,17.0,25.0,65,0.00,,,0.00,meteohub,2013-03-10 15:12:00,
2013-03-10 10:17:00,40.8,30.4,28.48,WNW,293,18.0,25.0,66,0.00,,,0.00,meteohub,2013-03-10 15:17:00,
2013-03-10 10:22:00,41.0,30.2,28.47,NW,315,21.0,24.0,65,0.00,,,0.00,meteohub,2013-03-10 15:22:00,
2013-03-10 10:27:00,40.8,30.0,28.48,NW,315,20.0,25.0,65,0.00,,,0.00,meteohub,2013-03-10 15:27:00,
2013-03-10 10:32:00,41.0,30.2,28.48,NW,315,21.0,25.0,65,0.00,,,0.00,meteohub,2013-03-10 15:32:00,
2013-03-10 10:38:00,40.8,30.0,28.48,NW,315,17.0,25.0,65,0.00,,,0.00,meteohub,2013-03-10 15:38:00,
2013-03-10 10:43:00,40.8,29.7,28.48,NW,315,25.0,26.0,64,0.00,,,0.00,meteohub,2013-03-10 15:43:00,
2013-03-10 10:48:00,40.8,30.4,28.48,NW,315,20.0,26.0,66,0.00,,,0.00,meteohub,2013-03-10 15:48:00,
2013-03-10 10:53:00,40.6,29.5,28.48,NW,315,31.0,31.0,64,0.00,,,0.00,meteohub,2013-03-10 15:53:00,
2013-03-10 10:58:00,40.5,29.7,28.48,NW,315,28.0,28.0,65,0.00,,,0.00,meteohub,2013-03-10 15:58:00,
2013-03-10 11:03:00,40.6,29.8,28.48,NW,315,16.0,31.0,65,0.00,,,0.00,meteohub,2013-03-10 16:03:00,
2013-03-10 11:08:00,41.0,29.3,28.48,NW,315,21.0,31.0,63,0.00,,,0.00,meteohub,2013-03-10 16:08:00,
2013-03-10 11:13:00,41.0,28.9,28.48,NW,315,17.0,28.0,62,0.00,,,0.00,meteohub,2013-03-10 16:13:00,
2013-03-10 11:18:00,40.3,29.1,28.48,North,0,21.0,30.0,64,0.01,,,0.01,meteohub,2013-03-10 16:18:00,
2013-03-10 11:23:00,40.5,30.0,28.49,NW,315,17.0,30.0,66,0.01,,,0.01,meteohub,2013-03-10 16:23:00,
2013-03-10 11:28:00,40.5,30.0,28.50,West,270,19.0,30.0,66,0.01,,,0.01,meteohub,2013-03-10 16:28:00,
2013-03-10 11:33:00,40.1,28.9,28.50,NW,315,16.0,23.0,64,0.01,,,0.01,meteohub,2013-03-10 16:33:00,
2013-03-10 11:38:00,39.9,28.4,28.51,North,0,28.0,28.0,63,0.01,,,0.01,meteohub,2013-03-10 16:38:00,
2013-03-10 11:43:00,40.3,28.2,28.51,NW,315,19.0,29.0,62,0.01,,,0.01,meteohub,2013-03-10 16:43:00,
2013-03-10 11:48:00,40.5,28.0,28.51,West,270,18.0,29.0,61,0.01,,,0.01,meteohub,2013-03-10 16:48:00,
2013-03-10 11:53:00,40.5,27.7,28.51,North,0,24.0,29.0,60,0.01,,,0.01,meteohub,2013-03-10 16:53:00,
2013-03-10 11:58:00,40.5,28.0,28.51,NW,315,17.0,28.0,61,0.01,,,0.01,meteohub,2013-03-10 16:58:00,
2013-03-10 12:03:00,40.5,28.9,28.51,NW,315,15.0,28.0,63,0.01,,,0.01,meteohub,2013-03-10 17:03:00,
2013-03-10 12:08:00,40.1,28.9,28.52,NW,315,10.0,26.0,64,0.01,,,0.01,meteohub,2013-03-10 17:08:00,
2013-03-10 12:13:00,40.1,28.9,28.53,NW,315,19.0,22.0,64,0.00,,,0.01,meteohub,2013-03-10 17:13:00,
2013-03-10 12:18:00,40.5,28.0,28.52,NW,315,25.0,25.0,61,0.00,,,0.01,meteohub,2013-03-10 17:18:00,
2013-03-10 12:23:00,41.2,28.4,28.52,NW,315,16.0,24.0,60,0.00,,,0.01,meteohub,2013-03-10 17:23:00,
2013-03-10 12:28:00,41.5,28.8,28.53,NW,315,14.0,25.0,60,0.00,,,0.01,meteohub,2013-03-10 17:28:00,
2013-03-10 12:33:00,41.7,28.0,28.53,NW,315,17.0,25.0,58,0.00,,,0.01,meteohub,2013-03-10 17:33:00,
2013-03-10 12:38:00,41.4,28.0,28.53,NW,315,17.0,25.0,59,0.00,,,0.01,meteohub,2013-03-10 17:38:00,
2013-03-10 12:43:00,41.5,27.9,28.53,NW,315,17.0,21.0,58,0.00,,,0.01,meteohub,2013-03-10 17:43:00,
2013-03-10 12:48:00,41.5,27.5,28.53,North,0,22.0,23.0,57,0.00,,,0.01,meteohub,2013-03-10 17:48:00,
2013-03-10 12:53:00,41.9,27.3,28.54,NW,315,23.0,23.0,56,0.01,,,0.02,meteohub,2013-03-10 17:53:00,
2013-03-10 12:58:00,41.9,27.3,28.54,NW,315,21.0,23.0,56,0.01,,,0.02,meteohub,2013-03-10 17:58:00,
2013-03-10 13:03:00,41.7,27.7,28.54,NW,315,12.0,27.0,57,0.01,,,0.02,meteohub,2013-03-10 18:03:00,
2013-03-10 13:08:00,42.3,28.0,28.54,NW,315,20.0,27.0,57,0.01,,,0.02,meteohub,2013-03-10 18:08:00,
2013-03-10 13:13:00,42.4,27.9,28.53,NW,315,17.0,27.0,56,0.01,,,0.02,meteohub,2013-03-10 18:13:00,
2013-03-10 13:18:00,42.6,28.0,28.53,NW,315,15.0,22.0,56,0.01,,,0.02,meteohub,2013-03-10 18:18:00,
2013-03-10 13:23:00,43.3,28.8,28.53,NW,315,17.0,23.0,56,0.01,,,0.02,meteohub,2013-03-10 18:23:00,
2013-03-10 13:29:00,43.3,27.9,28.53,NW,315,23.0,24.0,54,0.01,,,0.02,meteohub,2013-03-10 18:29:00,
2013-03-10 13:34:00,43.7,27.1,28.53,NW,315,17.0,24.0,52,0.01,,,0.02,meteohub,2013-03-10 18:34:00,
2013-03-10 13:39:00,44.1,26.1,28.53,NW,315,21.0,24.0,49,0.01,,,0.02,meteohub,2013-03-10 18:39:00,
2013-03-10 13:44:00,45.0,27.0,28.53,North,0,21.0,28.0,49,0.01,,,0.02,meteohub,2013-03-10 18:44:00,
2013-03-10 13:49:00,45.0,26.4,28.53,North,0,16.0,28.0,48,0.01,,,0.02,meteohub,2013-03-10 18:49:00,
2013-03-10 13:54:00,45.5,26.4,28.52,NW,315,22.0,24.0,47,0.00,,,0.02,meteohub,2013-03-10 18:54:00,
2013-03-10 13:59:00,45.5,26.4,28.52,WNW,293,21.0,24.0,47,0.00,,,0.02,meteohub,2013-03-10 18:59:00,
2013-03-10 14:04:00,46.0,25.9,28.52,NW,315,21.0,27.0,45,0.00,,,0.02,meteohub,2013-03-10 19:04:00,
2013-03-10 14:09:00,46.2,26.6,28.52,NW,315,23.0,27.0,46,0.00,,,0.02,meteohub,2013-03-10 19:09:00,
2013-03-10 14:14:00,46.8,26.6,28.52,NW,315,27.0,27.0,45,0.00,,,0.02,meteohub,2013-03-10 19:14:00,
2013-03-10 14:19:00,46.0,27.0,28.52,NW,315,21.0,27.0,47,0.00,,,0.02,meteohub,2013-03-10 19:19:00,
2013-03-10 14:24:00,46.9,25.5,28.51,NW,315,23.0,27.0,43,0.00,,,0.02,meteohub,2013-03-10 19:24:00,
2013-03-10 14:29:00,47.3,24.8,28.52,NW,315,23.0,27.0,41,0.00,,,0.02,meteohub,2013-03-10 19:29:00,
2013-03-10 14:34:00,46.8,24.8,28.52,WNW,293,23.0,27.0,42,0.00,,,0.02,meteohub,2013-03-10 19:34:00,
2013-03-10 14:39:00,46.9,24.4,28.52,NW,315,18.0,27.0,41,0.00,,,0.02,meteohub,2013-03-10 19:39:00,
2013-03-10 14:44:00,47.1,25.7,28.51,NW,315,11.0,26.0,43,0.00,,,0.02,meteohub,2013-03-10 19:44:00,
2013-03-10 14:49:00,47.7,25.7,28.52,NW,315,16.0,26.0,42,0.00,,,0.02,meteohub,2013-03-10 19:49:00,
2013-03-10 14:54:00,47.7,23.9,28.51,WNW,293,18.0,25.0,39,0.00,,,0.02,meteohub,2013-03-10 19:54:00,
2013-03-10 14:59:00,48.4,25.2,28.51,NW,315,17.0,25.0,40,0.00,,,0.02,meteohub,2013-03-10 19:59:00,
2013-03-10 15:04:00,48.6,25.3,28.51,North,0,17.0,22.0,40,0.00,,,0.02,meteohub,2013-03-10 20:04:00,
2013-03-10 15:09:00,48.4,25.7,28.51,West,270,21.0,22.0,41,0.00,,,0.02,meteohub,2013-03-10 20:09:00,
2013-03-10 15:14:00,48.4,23.9,28.51,NW,315,21.0,22.0,38,0.00,,,0.02,meteohub,2013-03-10 20:14:00,
2013-03-10 15:19:00,48.4,23.9,28.51,NW,315,18.0,27.0,38,0.00,,,0.02,meteohub,2013-03-10 20:19:00,
2013-03-10 15:24:00,48.7,23.0,28.51,NW,315,17.0,27.0,36,0.00,,,0.02,meteohub,2013-03-10 20:24:00,
2013-03-10 15:29:00,48.9,23.7,28.51,NW,315,19.0,27.0,37,0.00,,,0.02,meteohub,2013-03-10 20:29:00,
2013-03-10 15:34:00,48.4,21.9,28.51,NW,315,23.0,23.0,35,0.00,,,0.02,meteohub,2013-03-10 20:34:00,
2013-03-10 15:39:00,48.9,23.7,28.51,NW,315,19.0,22.0,37,0.00,,,0.02,meteohub,2013-03-10 20:39:00,
2013-03-10 15:44:00,49.5,23.5,28.51,NW,315,16.0,23.0,36,0.00,,,0.02,meteohub,2013-03-10 20:44:00,
2013-03-10 15:49:00,49.5,23.0,28.51,NW,315,20.0,23.0,35,0.00,,,0.02,meteohub,2013-03-10 20:49:00,
2013-03-10 15:54:00,49.3,23.5,28.51,NW,315,16.0,23.0,36,0.00,,,0.02,meteohub,2013-03-10 20:54:00,
2013-03-10 15:59:00,49.1,22.6,28.51,WNW,293,26.0,26.0,35,0.00,,,0.02,meteohub,2013-03-10 20:59:00,
2013-03-10 16:04:00,49.3,22.8,28.51,NW,315,13.0,22.0,35,0.00,,,0.02,meteohub,2013-03-10 21:04:00,
2013-03-10 16:09:00,49.5,22.3,28.51,NW,315,19.0,26.0,34,0.00,,,0.02,meteohub,2013-03-10 21:09:00,
2013-03-10 16:14:00,49.6,23.7,28.50,WNW,293,20.0,26.0,36,0.00,,,0.02,meteohub,2013-03-10 21:14:00,
2013-03-10 16:19:00,50.2,23.5,28.51,NW,315,20.0,23.0,35,0.00,,,0.02,meteohub,2013-03-10 21:19:00,
2013-03-10 16:24:00,49.5,20.8,28.50,West,270,21.0,23.0,32,0.00,,,0.02,meteohub,2013-03-10 21:24:00,
2013-03-10 16:29:00,49.8,21.2,28.51,NW,315,17.0,23.0,32,0.00,,,0.02,meteohub,2013-03-10 21:29:00,
2013-03-10 16:34:00,50.0,20.5,28.51,NW,315,23.0,26.0,31,0.00,,,0.02,meteohub,2013-03-10 21:34:00,
2013-03-10 16:39:00,50.4,20.8,28.51,NW,315,21.0,26.0,31,0.00,,,0.02,meteohub,2013-03-10 21:39:00,
2013-03-10 16:44:00,50.0,21.4,28.50,West,270,13.0,26.0,32,0.00,,,0.02,meteohub,2013-03-10 21:44:00,
2013-03-10 16:49:00,50.2,20.7,28.51,NW,315,15.0,23.0,31,0.00,,,0.02,meteohub,2013-03-10 21:49:00,
2013-03-10 16:54:00,50.2,19.2,28.51,West,270,21.0,21.0,29,0.00,,,0.02,meteohub,2013-03-10 21:54:00,
2013-03-10 16:59:00,49.8,19.6,28.51,NW,315,12.0,22.0,30,0.00,,,0.02,meteohub,2013-03-10 21:59:00,
2013-03-10 17:04:00,49.8,18.9,28.51,NW,315,20.0,22.0,29,0.00,,,0.02,meteohub,2013-03-10 22:04:00,
2013-03-10 17:09:00,50.0,19.8,28.51,NW,315,14.0,23.0,30,0.00,,,0.02,meteohub,2013-03-10 22:09:00,
2013-03-10 17:14:00,49.6,18.7,28.50,NW,315,17.0,23.0,29,0.00,,,0.02,meteohub,2013-03-10 22:14:00,
2013-03-10 17:19:00,49.6,18.7,28.50,NW,315,15.0,23.0,29,0.00,,,0.02,meteohub,2013-03-10 22:19:00,
2013-03-10 17:24:00,50.0,19.0,28.50,NW,315,15.0,21.0,29,0.00,,,0.02,meteohub,2013-03-10 22:24:00,
2013-03-10 17:29:00,49.3,19.2,28.50,NW,315,14.0,21.0,30,0.00,,,0.02,meteohub,2013-03-10 22:29:00,
2013-03-10 17:35:00,48.9,18.9,28.50,NW,315,15.0,21.0,30,0.00,,,0.02,meteohub,2013-03-10 22:35:00,
2013-03-10 17:40:00,49.3,18.3,28.50,NW,315,16.0,19.0,29,0.00,,,0.02,meteohub,2013-03-10 22:40:00,
2013-03-10 17:45:00,49.5,19.2,28.51,NW,315,12.0,19.0,30,0.00,,,0.02,meteohub,2013-03-10 22:45:00,
2013-03-10 17:50:00,49.5,18.5,28.51,NW,315,18.0,21.0,29,0.00,,,0.02,meteohub,2013-03-10 22:50:00,
2013-03-10 17:55:00,49.3,18.3,28.51,NE,45,14.0,21.0,29,0.00,,,0.02,meteohub,2013-03-10 22:55:00,
2013-03-10 18:00:00,48.7,18.0,28.51,NW,315,16.0,18.0,29,0.00,,,0.02,meteohub,2013-03-10 23:00:00,
2013-03-10 18:05:00,49.1,19.0,28.51,NW,315,18.0,22.0,30,0.00,,,0.02,meteohub,2013-03-10 23:05:00,
2013-03-10 18:10:00,49.1,19.8,28.51,NW,315,11.0,20.0,31,0.00,,,0.02,meteohub,2013-03-10 23:10:00,
2013-03-10 18:15:00,48.4,17.6,28.51,NW,315,17.0,20.0,29,0.00,,,0.02,meteohub,2013-03-10 23:15:00,
2013-03-10 18:20:00,48.4,17.6,28.51,NW,315,13.0,18.0,29,0.00,,,0.02,meteohub,2013-03-10 23:20:00,
2013-03-10 18:25:00,48.4,19.0,28.51,NW,315,17.0,18.0,31,0.00,,,0.02,meteohub,2013-03-10 23:25:00,
2013-03-10 18:30:00,47.7,17.8,28.51,West,270,15.0,21.0,30,0.00,,,0.02,meteohub,2013-03-10 23:30:00,
2013-03-10 18:35:00,46.9,19.4,28.52,NW,315,11.0,21.0,33,0.00,,,0.02,meteohub,2013-03-10 23:35:00,
2013-03-10 18:40:00,47.1,18.7,28.51,NW,315,13.0,21.0,32,0.00,,,0.02,meteohub,2013-03-10 23:40:00,
2013-03-10 18:45:00,47.7,19.2,28.52,WSW,248,12.0,16.0,32,0.00,,,0.02,meteohub,2013-03-10 23:45:00,
2013-03-10 18:50:00,47.5,17.6,28.52,NW,315,13.0,16.0,30,0.00,,,0.02,meteohub,2013-03-10 23:50:00,
2013-03-10 18:55:00,47.5,17.6,28.52,NW,315,15.0,17.0,30,0.00,,,0.02,meteohub,2013-03-10 23:55:00,
2013-03-10 19:00:00,47.3,17.4,28.52,NW,315,15.0,17.0,30,0.00,,,0.02,meteohub,2013-03-11 00:00:00,
2013-03-10 19:05:00,47.1,19.4,28.52,NW,315,12.0,18.0,33,0.00,,,0.00,meteohub,2013-03-11 00:05:00,
2013-03-10 19:10:00,46.8,17.8,28.52,NW,315,17.0,23.0,31,0.00,,,0.00,meteohub,2013-03-11 00:10:00,
2013-03-10 19:15:00,46.0,18.5,28.52,NW,315,19.0,23.0,33,0.00,,,0.00,meteohub,2013-03-11 00:15:00,
2013-03-10 19:20:00,45.9,18.3,28.53,West,270,16.0,23.0,33,0.00,,,0.00,meteohub,2013-03-11 00:20:00,
2013-03-10 19:25:00,45.1,17.8,28.53,NW,315,13.0,19.0,33,0.00,,,0.00,meteohub,2013-03-11 00:25:00,
2013-03-10 19:30:00,45.0,18.9,28.53,West,270,14.0,19.0,35,0.00,,,0.00,meteohub,2013-03-11 00:30:00,
2013-03-10 19:35:00,44.4,19.0,28.53,West,270,16.0,19.0,36,0.00,,,0.00,meteohub,2013-03-11 00:35:00,
2013-03-10 19:40:00,43.9,19.2,28.54,North,0,10.0,19.0,37,0.00,,,0.00,meteohub,2013-03-11 00:40:00,
2013-03-10 19:45:00,43.9,18.7,28.54,West,270,17.0,20.0,36,0.00,,,0.00,meteohub,2013-03-11 00:45:00,
2013-03-10 19:50:00,43.7,19.0,28.54,NW,315,11.0,20.0,37,0.00,,,0.00,meteohub,2013-03-11 00:50:00,
2013-03-10 19:55:00,43.0,19.8,28.55,West,270,11.0,20.0,39,0.00,,,0.00,meteohub,2013-03-11 00:55:00,
2013-03-10 20:00:00,42.8,19.6,28.55,NW,315,11.0,18.0,39,0.00,,,0.00,meteohub,2013-03-11 01:00:00,
2013-03-10 20:05:00,42.4,20.5,28.55,West,270,11.0,14.0,41,0.00,,,0.00,meteohub,2013-03-11 01:05:00,
2013-03-10 20:10:00,42.3,20.3,28.56,West,270,12.0,13.0,41,0.00,,,0.00,meteohub,2013-03-11 01:10:00,
2013-03-10 20:15:00,41.9,20.5,28.56,West,270,15.0,15.0,42,0.00,,,0.00,meteohub,2013-03-11 01:15:00,
2013-03-10 20:20:00,41.5,20.7,28.56,WNW,293,11.0,15.0,43,0.00,,,0.00,meteohub,2013-03-11 01:20:00,
2013-03-10 20:25:00,41.5,20.7,28.56,West,270,10.0,15.0,43,0.00,,,0.00,meteohub,2013-03-11 01:25:00,
2013-03-10 20:30:00,41.2,20.8,28.57,West,270,10.0,15.0,44,0.00,,,0.00,meteohub,2013-03-11 01:30:00,
2013-03-10 20:36:00,41.0,21.2,28.57,West,270,13.0,14.0,45,0.00,,,0.00,meteohub,2013-03-11 01:36:00,
2013-03-10 20:41:00,40.6,21.6,28.57,NW,315,8.0,14.0,46,0.00,,,0.00,meteohub,2013-03-11 01:41:00,
2013-03-10 20:46:00,40.1,21.0,28.57,West,270,8.0,14.0,46,0.00,,,0.00,meteohub,2013-03-11 01:46:00,
2013-03-10 20:51:00,39.9,21.4,28.58,West,270,8.0,14.0,47,0.00,,,0.00,meteohub,2013-03-11 01:51:00,
2013-03-10 20:56:00,39.2,21.6,28.58,NW,315,7.0,10.0,49,0.00,,,0.00,meteohub,2013-03-11 01:56:00,
2013-03-10 21:01:00,39.0,21.9,28.58,West,270,5.0,10.0,50,0.00,,,0.00,meteohub,2013-03-11 02:01:00,
2013-03-10 21:06:00,38.3,21.7,28.58,West,270,6.0,9.0,51,0.00,,,0.00,meteohub,2013-03-11 02:06:00,
2013-03-10 21:11:00,38.1,22.1,28.58,NW,315,6.0,8.0,52,0.00,,,0.00,meteohub,2013-03-11 02:11:00,
2013-03-10 21:16:00,37.8,22.1,28.58,West,270,7.0,8.0,53,0.00,,,0.00,meteohub,2013-03-11 02:16:00,
2013-03-10 21:21:00,37.0,22.5,28.58,West,270,7.0,8.0,55,0.00,,,0.00,meteohub,2013-03-11 02:21:00,
2013-03-10 21:26:00,36.3,22.5,28.58,West,270,6.0,8.0,57,0.00,,,0.00,meteohub,2013-03-11 02:26:00,
2013-03-10 21:31:00,36.0,22.6,28.59,NW,315,4.0,7.0,58,0.00,,,0.00,meteohub,2013-03-11 02:31:00,
2013-03-10 21:37:00,35.4,22.5,28.59,NW,315,4.0,7.0,59,0.00,,,0.00,meteohub,2013-03-11 02:37:00,
2013-03-10 21:42:00,35.1,22.6,28.59,NW,315,6.0,7.0,60,0.00,,,0.00,meteohub,2013-03-11 02:42:00,
2013-03-10 21:47:00,34.5,22.5,28.60,West,270,4.0,6.0,61,0.00,,,0.00,meteohub,2013-03-11 02:47:00,
2013-03-10 21:52:00,34.2,22.8,28.60,West,270,5.0,6.0,63,0.00,,,0.00,meteohub,2013-03-11 02:52:00,
2013-03-10 21:57:00,34.0,23.0,28.60,West,270,6.0,6.0,64,0.00,,,0.00,meteohub,2013-03-11 02:57:00,
2013-03-10 22:02:00,33.8,23.0,28.60,NW,315,4.0,7.0,64,0.00,,,0.00,meteohub,2013-03-11 03:02:00,
2013-03-10 22:07:00,33.8,23.0,28.61,NW,315,6.0,7.0,64,0.00,,,0.00,meteohub,2013-03-11 03:07:00,
2013-03-10 22:12:00,33.4,22.6,28.61,West,270,4.0,7.0,64,0.00,,,0.00,meteohub,2013-03-11 03:12:00,
2013-03-10 22:17:00,33.1,22.6,28.60,West,270,5.0,7.0,65,0.00,,,0.00,meteohub,2013-03-11 03:17:00,
2013-03-10 22:22:00,32.9,22.8,28.61,West,270,4.0,6.0,66,0.00,,,0.00,meteohub,2013-03-11 03:22:00,
2013-03-10 22:27:00,32.7,23.0,28.61,West,270,4.0,6.0,67,0.00,,,0.00,meteohub,2013-03-11 03:27:00,
2013-03-10 22:32:00,32.4,23.0,28.61,West,270,4.0,6.0,68,0.00,,,0.00,meteohub,2013-03-11 03:32:00,
2013-03-10 22:37:00,31.8,22.5,28.61,NW,315,4.0,6.0,68,0.00,,,0.00,meteohub,2013-03-11 03:37:00,
2013-03-10 22:42:00,31.6,22.6,28.61,WNW,293,4.0,4.0,69,0.00,,,0.00,meteohub,2013-03-11 03:42:00,
2013-03-10 22:47:00,31.5,22.8,28.61,West,270,4.0,4.0,70,0.00,,,0.00,meteohub,2013-03-11 03:47:00,
2013-03-10 22:52:00,31.3,23.0,28.62,West,270,4.0,4.0,71,0.00,,,0.00,meteohub,2013-03-11 03:52:00,
2013-03-10 22:57:00,30.9,22.6,28.61,West,270,4.0,5.0,71,0.00,,,0.00,meteohub,2013-03-11 03:57:00,
2013-03-10 23:00:00,31.1,23.2,28.62,WNW,293,3.0,5.0,72,0.00,,,0.00,meteohub,2013-03-11 04:00:00,
2013-03-10 23:05:00,30.9,23.0,28.61,West,270,4.0,6.0,72,0.00,,,0.00,meteohub,2013-03-11 04:05:00,
2013-03-10 23:10:00,30.6,22.6,28.62,West,270,4.0,6.0,72,0.00,,,0.00,meteohub,2013-03-11 04:10:00,
2013-03-10 23:15:00,30.9,23.4,28.61,WNW,293,4.0,5.0,73,0.00,,,0.00,meteohub,2013-03-11 04:15:00,
2013-03-10 23:20:00,30.9,23.0,28.61,West,270,4.0,6.0,72,0.00,,,0.00,meteohub,2013-03-11 04:20:00,
2013-03-10 23:26:00,30.9,22.6,28.61,NW,315,3.0,6.0,71,0.00,,,0.00,meteohub,2013-03-11 04:26:00,
2013-03-10 23:31:00,31.3,22.6,28.61,WNW,293,4.0,6.0,70,0.00,,,0.00,meteohub,2013-03-11 04:31:00,
2013-03-10 23:36:00,30.9,22.6,28.61,West,270,4.0,6.0,71,0.00,,,0.00,meteohub,2013-03-11 04:36:00,
2013-03-10 23:41:00,31.3,22.6,28.62,West,270,5.0,6.0,70,0.00,,,0.00,meteohub,2013-03-11 04:41:00,
2013-03-10 23:46:00,31.3,22.6,28.61,NW,315,4.0,5.0,70,0.00,,,0.00,meteohub,2013-03-11 04:46:00,
2013-03-10 23:51:00,30.7,22.5,28.61,WNW,293,4.0,5.0,71,0.00,,,0.00,meteohub,2013-03-11 04:51:00,
2013-03-10 23:56:00,30.9,22.6,28.61,West,270,4.0,5.0,71,0.00,,,0.00,meteohub,2013-03-11 04:56:00,